Time,TemperatureF,DewpointF,PressureIn,WindDirection,WindDirectionDegrees,WindSpeedMPH,WindSpeedGustMPH,Humidity,HourlyPrecipIn,Conditions,Clouds,dailyrainin,SoftwareType,DateUTC
2013-05-02 00:03:00,67.0,35.0,-100.00,ESE,110,4.0,7.0,30,0.00,,,-99.99,,2013-05-02 04:03:00,
2013-05-02 00:12:00,66.0,35.0,-100.00,ESE,110,2.0,7.0,31,0.00,,,-99.99,,2013-05-02 04:12:00,
2013-05-02 00:23:00,66.0,35.0,-100.00,ESE,110,3.0,7.0,31,0.00,,,-99.99,,2013-05-02 04:23:00,
2013-05-02 00:33:00,65.0,35.0,-100.00,ESE,105,6.0,9.0,31,0.00,,,-99.99,,2013-05-02 04:33:00,
2013-05-02 00:42:00,65.0,33.0,-100.00,SE,135,6.0,11.0,30,0.00,,,-99.99,,2013-05-02 04:42:00,
2013-05-02 00:52:00,65.0,33.0,-100.00,ESE,105,4.0,9.0,29,0.00,,,-99.99,,2013-05-02 04:52:00,
2013-05-02 01:02:00,65.0,32.0,-100.00,SE,130,7.0,12.0,29,0.00,,,-99.99,,2013-05-02 05:02:00,
2013-05-02 01:12:00,64.0,32.0,-100.00,SE,125,3.0,11.0,30,0.00,,,-99.99,,2013-05-02 05:12:00,
2013-05-02 01:22:00,64.0,31.0,-100.00,ESE,120,6.0,14.0,29,0.00,,,-99.99,,2013-05-02 05:22:00,
2013-05-02 01:32:00,64.0,31.0,-100.00,SE,125,6.0,13.0,28,0.00,,,-99.99,,2013-05-02 05:32:00,
2013-05-02 01:42:00,63.0,31.0,-100.00,ESE,110,4.0,10.0,29,0.00,,,-99.99,,2013-05-02 05:42:00,
2013-05-02 01:52:00,63.0,31.0,-100.00,SE,130,6.0,12.0,29,0.00,,,-99.99,,2013-05-02 05:52:00,
2013-05-02 02:01:00,63.0,30.0,-100.00,ESE,115,6.0,10.0,29,0.00,,,-99.99,,2013-05-02 06:01:00,
2013-05-02 02:12:00,62.0,30.0,-100.00,ESE,120,6.0,11.0,29,0.00,,,-99.99,,2013-05-02 06:12:00,
2013-05-02 02:21:00,62.0,30.0,-100.00,SE,140,4.0,12.0,29,0.00,,,-99.99,,2013-05-02 06:21:00,
2013-05-02 02:32:00,62.0,30.0,-100.00,SE,140,4.0,9.0,30,0.00,,,-99.99,,2013-05-02 06:32:00,
2013-05-02 02:42:00,61.0,30.0,-100.00,SE,125,2.0,9.0,30,0.00,,,-99.99,,2013-05-02 06:42:00,
2013-05-02 02:52:00,61.0,30.0,-100.00,SE,125,2.0,9.0,30,0.00,,,-99.99,,2013-05-02 06:52:00,
2013-05-02 03:02:00,60.0,30.0,-100.00,ESE,120,2.0,6.0,31,0.00,,,-99.99,,2013-05-02 07:02:00,
2013-05-02 03:11:00,60.0,31.0,-100.00,SE,130,3.0,9.0,32,0.00,,,-99.99,,2013-05-02 07:11:00,
2013-05-02 03:21:00,60.0,30.0,-100.00,SE,130,4.0,7.0,32,0.00,,,-99.99,,2013-05-02 07:21:00,
2013-05-02 03:32:00,60.0,31.0,-100.00,SSE,150,3.0,6.0,33,0.00,,,-99.99,,2013-05-02 07:32:00,
2013-05-02 03:42:00,59.0,31.0,-100.00,SE,135,3.0,6.0,34,0.00,,,-99.99,,2013-05-02 07:42:00,
2013-05-02 03:52:00,59.0,31.0,-100.00,ESE,115,4.0,8.0,33,0.00,,,-99.99,,2013-05-02 07:52:00,
2013-05-02 04:02:00,59.0,31.0,-100.00,SE,135,3.0,9.0,34,0.00,,,-99.99,,2013-05-02 08:02:00,
2013-05-02 04:11:00,59.0,31.0,-100.00,ESE,120,4.0,7.0,34,0.00,,,-99.99,,2013-05-02 08:11:00,
2013-05-02 04:22:00,58.0,31.0,-100.00,ESE,120,4.0,9.0,35,0.00,,,-99.99,,2013-05-02 08:22:00,
2013-05-02 04:32:00,58.0,31.0,-100.00,ESE,105,2.0,9.0,35,0.00,,,-99.99,,2013-05-02 08:32:00,
2013-05-02 04:42:00,58.0,31.0,-100.00,ESE,120,4.0,7.0,35,0.00,,,-99.99,,2013-05-02 08:42:00,
2013-05-02 04:52:00,58.0,31.0,-100.00,East,100,4.0,7.0,35,0.00,,,-99.99,,2013-05-02 08:52:00,
2013-05-02 05:02:00,58.0,31.0,-100.00,ESE,110,4.0,8.0,36,0.00,,,-99.99,,2013-05-02 09:02:00,
2013-05-02 05:12:00,57.0,32.0,-100.00,SE,125,3.0,7.0,38,0.00,,,-99.99,,2013-05-02 09:12:00,
2013-05-02 05:21:00,58.0,31.0,-100.00,ESE,110,4.0,9.0,36,0.00,,,-99.99,,2013-05-02 09:21:00,
2013-05-02 05:33:00,57.0,32.0,-100.00,ESE,105,4.0,8.0,38,0.00,,,-99.99,,2013-05-02 09:33:00,
2013-05-02 05:42:00,57.0,32.0,-100.00,SE,130,4.0,11.0,38,0.00,,,-99.99,,2013-05-02 09:42:00,
2013-05-02 05:52:00,57.0,32.0,-100.00,SE,130,6.0,11.0,38,0.00,,,-99.99,,2013-05-02 09:52:00,
2013-05-02 06:03:00,56.0,32.0,-100.00,ESE,120,3.0,9.0,39,0.00,,,-99.99,,2013-05-02 10:03:00,
2013-05-02 06:12:00,56.0,32.0,-100.00,SE,130,5.0,11.0,39,0.00,,,-99.99,,2013-05-02 10:12:00,
2013-05-02 06:22:00,56.0,33.0,-100.00,SE,130,6.0,9.0,40,0.00,,,-99.99,,2013-05-02 10:22:00,
2013-05-02 06:33:00,56.0,32.0,-100.00,SE,140,4.0,9.0,40,0.00,,,-99.99,,2013-05-02 10:33:00,
2013-05-02 06:42:00,56.0,33.0,-100.00,SE,125,5.0,12.0,40,0.00,,,-99.99,,2013-05-02 10:42:00,
2013-05-02 06:52:00,56.0,32.0,-100.00,SE,125,4.0,8.0,40,0.00,,,-99.99,,2013-05-02 10:52:00,
2013-05-02 07:02:00,56.0,33.0,-100.00,ESE,120,1.0,6.0,41,0.00,,,-99.99,,2013-05-02 11:02:00,
2013-05-02 07:12:00,56.0,33.0,-100.00,ESE,115,2.0,7.0,41,0.00,,,-99.99,,2013-05-02 11:12:00,
2013-05-02 07:22:00,56.0,33.0,-100.00,ESE,120,3.0,9.0,41,0.00,,,-99.99,,2013-05-02 11:22:00,
2013-05-02 07:32:00,57.0,33.0,-100.00,ESE,115,4.0,9.0,40,0.00,,,-99.99,,2013-05-02 11:32:00,
2013-05-02 07:42:00,57.0,33.0,-100.00,ESE,115,3.0,7.0,40,0.00,,,-99.99,,2013-05-02 11:42:00,
2013-05-02 07:52:00,58.0,34.0,-100.00,ENE,70,3.0,7.0,40,0.00,,,-99.99,,2013-05-02 11:52:00,
2013-05-02 08:01:00,58.0,33.0,-100.00,ESE,110,4.0,9.0,39,0.00,,,-99.99,,2013-05-02 12:01:00,
2013-05-02 08:11:00,59.0,33.0,-100.00,SE,145,4.0,9.0,38,0.00,,,-99.99,,2013-05-02 12:11:00,
2013-05-02 08:21:00,59.0,33.0,-100.00,SE,135,5.0,9.0,36,0.00,,,-99.99,,2013-05-02 12:21:00,
2013-05-02 08:32:00,60.0,33.0,-100.00,ESE,110,3.0,10.0,36,0.00,,,-99.99,,2013-05-02 12:32:00,
2013-05-02 08:42:00,60.0,33.0,-100.00,ESE,110,3.0,10.0,36,0.00,,,-99.99,,2013-05-02 12:42:00,
2013-05-02 08:52:00,61.0,34.0,-100.00,SE,125,2.0,7.0,35,0.00,,,-99.99,,2013-05-02 12:52:00,
2013-05-02 09:01:00,62.0,34.0,-100.00,SSE,155,4.0,16.0,34,0.00,,,-99.99,,2013-05-02 13:01:00,
2013-05-02 09:11:00,62.0,34.0,-100.00,ESE,115,6.0,11.0,35,0.00,,,-99.99,,2013-05-02 13:11:00,
2013-05-02 09:22:00,62.0,34.0,-100.00,SE,135,4.0,12.0,34,0.00,,,-99.99,,2013-05-02 13:22:00,
2013-05-02 09:32:00,63.0,35.0,-100.00,SE,135,8.0,10.0,34,0.00,,,-99.99,,2013-05-02 13:32:00,
2013-05-02 09:42:00,63.0,33.0,-100.00,ESE,120,9.0,14.0,33,0.00,,,-99.99,,2013-05-02 13:42:00,
2013-05-02 09:52:00,63.0,34.0,-100.00,SE,130,9.0,15.0,33,0.00,,,-99.99,,2013-05-02 13:52:00,
2013-05-02 10:02:00,63.0,34.0,-100.00,SE,135,9.0,16.0,33,0.00,,,-99.99,,2013-05-02 14:02:00,
2013-05-02 10:11:00,64.0,35.0,-100.00,SE,125,6.0,16.0,33,0.00,,,-99.99,,2013-05-02 14:11:00,
2013-05-02 10:22:00,64.0,35.0,-100.00,SE,145,7.0,13.0,33,0.00,,,-99.99,,2013-05-02 14:22:00,
2013-05-02 10:32:00,65.0,35.0,-100.00,SE,135,6.0,11.0,32,0.00,,,-99.99,,2013-05-02 14:32:00,
2013-05-02 10:42:00,65.0,36.0,-100.00,SE,125,6.0,14.0,33,0.00,,,-99.99,,2013-05-02 14:42:00,
2013-05-02 10:52:00,66.0,34.0,-100.00,ESE,110,7.0,12.0,30,0.00,,,-99.99,,2013-05-02 14:52:00,
2013-05-02 11:02:00,66.0,35.0,-100.00,SE,140,9.0,16.0,30,0.00,,,-99.99,,2013-05-02 15:02:00,
2013-05-02 11:12:00,68.0,36.0,-100.00,SSE,165,6.0,14.0,31,0.00,,,-99.99,,2013-05-02 15:12:00,
2013-05-02 11:22:00,68.0,35.0,-100.00,SE,140,4.0,14.0,29,0.00,,,-99.99,,2013-05-02 15:22:00,
2013-05-02 11:33:00,69.0,37.0,-100.00,ENE,60,3.0,9.0,30,0.00,,,-99.99,,2013-05-02 15:33:00,
2013-05-02 11:43:00,69.0,36.0,-100.00,East,80,4.0,11.0,29,0.00,,,-99.99,,2013-05-02 15:43:00,
2013-05-02 12:03:00,69.0,37.0,-100.00,ESE,120,6.0,11.0,30,0.00,,,-99.99,,2013-05-02 16:03:00,
2013-05-02 12:13:00,70.0,37.0,-100.00,East,90,5.0,11.0,30,0.00,,,-99.99,,2013-05-02 16:13:00,
2013-05-02 12:22:00,70.0,38.0,-100.00,SE,135,9.0,14.0,30,0.00,,,-99.99,,2013-05-02 16:22:00,
2013-05-02 12:32:00,71.0,39.0,-100.00,SSE,160,4.0,10.0,30,0.00,,,-99.99,,2013-05-02 16:32:00,
2013-05-02 12:43:00,71.0,40.0,-100.00,South,170,9.0,13.0,32,0.00,,,-99.99,,2013-05-02 16:43:00,
2013-05-02 12:52:00,71.0,40.0,-100.00,SSE,155,4.0,11.0,32,0.00,,,-99.99,,2013-05-02 16:52:00,
2013-05-02 13:02:00,72.0,40.0,-100.00,SSE,165,5.0,14.0,31,0.00,,,-99.99,,2013-05-02 17:02:00,
2013-05-02 13:12:00,73.0,40.0,-100.00,East,80,4.0,16.0,31,0.00,,,-99.99,,2013-05-02 17:12:00,
2013-05-02 13:22:00,73.0,42.0,-100.00,South,180,9.0,16.0,32,0.00,,,-99.99,,2013-05-02 17:22:00,
2013-05-02 13:32:00,73.0,41.0,-100.00,South,170,7.0,11.0,31,0.00,,,-99.99,,2013-05-02 17:32:00,
2013-05-02 13:42:00,74.0,41.0,-100.00,NE,50,2.0,6.0,30,0.00,,,-99.99,,2013-05-02 17:42:00,
2013-05-02 13:52:00,74.0,42.0,-100.00,SE,125,5.0,11.0,31,0.00,,,-99.99,,2013-05-02 17:52:00,
2013-05-02 14:01:00,73.0,40.0,-100.00,ESE,120,6.0,14.0,30,0.00,,,-99.99,,2013-05-02 18:01:00,
2013-05-02 14:11:00,74.0,42.0,-100.00,ESE,115,6.0,10.0,31,0.00,,,-99.99,,2013-05-02 18:11:00,
2013-05-02 14:22:00,74.0,40.0,-100.00,SSE,155,4.0,12.0,29,0.00,,,-99.99,,2013-05-02 18:22:00,
2013-05-02 14:32:00,75.0,40.0,-100.00,ENE,65,9.0,14.0,28,0.00,,,-99.99,,2013-05-02 18:32:00,
2013-05-02 14:42:00,74.0,39.0,-100.00,East,80,7.0,17.0,27,0.00,,,-99.99,,2013-05-02 18:42:00,
2013-05-02 14:52:00,75.0,40.0,-100.00,ENE,75,7.0,11.0,28,0.00,,,-99.99,,2013-05-02 18:52:00,
2013-05-02 15:01:00,75.0,40.0,-100.00,ENE,70,6.0,12.0,28,0.00,,,-99.99,,2013-05-02 19:01:00,
2013-05-02 15:11:00,76.0,42.0,-100.00,ENE,65,7.0,14.0,29,0.00,,,-99.99,,2013-05-02 19:11:00,
2013-05-02 15:22:00,75.0,38.0,-100.00,ENE,65,9.0,14.0,26,0.00,,,-99.99,,2013-05-02 19:22:00,
2013-05-02 15:32:00,76.0,39.0,-100.00,SE,135,6.0,12.0,25,0.00,,,-99.99,,2013-05-02 19:32:00,
2013-05-02 15:42:00,75.0,37.0,-100.00,ENE,65,8.0,16.0,24,0.00,,,-99.99,,2013-05-02 19:42:00,
2013-05-02 15:52:00,77.0,35.0,-100.00,SE,130,7.0,15.0,21,0.00,,,-99.99,,2013-05-02 19:52:00,
2013-05-02 16:02:00,76.0,34.0,-100.00,ENE,70,7.0,14.0,21,0.00,,,-99.99,,2013-05-02 20:02:00,
2013-05-02 16:11:00,76.0,31.0,-100.00,ESE,120,6.0,16.0,19,0.00,,,-99.99,,2013-05-02 20:11:00,
2013-05-02 16:22:00,76.0,32.0,-100.00,SSE,150,7.0,14.0,19,0.00,,,-99.99,,2013-05-02 20:22:00,
2013-05-02 16:32:00,76.0,30.0,-100.00,SE,130,7.0,16.0,18,0.00,,,-99.99,,2013-05-02 20:32:00,
2013-05-02 16:41:00,77.0,31.0,-100.00,East,85,4.0,12.0,18,0.00,,,-99.99,,2013-05-02 20:41:00,
2013-05-02 16:52:00,76.0,33.0,-100.00,SE,135,7.0,16.0,20,0.00,,,-99.99,,2013-05-02 20:52:00,
2013-05-02 17:01:00,77.0,27.0,-100.00,East,90,6.0,13.0,15,0.00,,,-99.99,,2013-05-02 21:01:00,
2013-05-02 17:12:00,77.0,27.0,-100.00,East,90,6.0,15.0,15,0.00,,,-99.99,,2013-05-02 21:12:00,
2013-05-02 17:21:00,77.0,21.0,-100.00,South,180,7.0,12.0,12,0.00,,,-99.99,,2013-05-02 21:21:00,
2013-05-02 17:33:00,77.0,24.0,-100.00,ESE,110,4.0,14.0,13,0.00,,,-99.99,,2013-05-02 21:33:00,
2013-05-02 17:42:00,76.0,24.0,-100.00,ENE,75,9.0,14.0,14,0.00,,,-99.99,,2013-05-02 21:42:00,
2013-05-02 17:53:00,77.0,24.0,-100.00,SE,145,4.0,14.0,14,0.00,,,-99.99,,2013-05-02 21:53:00,
2013-05-02 18:03:00,77.0,23.0,-100.00,SE,125,6.0,11.0,13,0.00,,,-99.99,,2013-05-02 22:03:00,
2013-05-02 18:12:00,77.0,25.0,-100.00,SE,130,4.0,12.0,14,0.00,,,-99.99,,2013-05-02 22:12:00,
2013-05-02 18:22:00,77.0,24.0,-100.00,ENE,75,4.0,11.0,13,0.00,,,-99.99,,2013-05-02 22:22:00,
2013-05-02 18:32:00,77.0,23.0,-100.00,ESE,105,6.0,11.0,13,0.00,,,-99.99,,2013-05-02 22:32:00,
2013-05-02 18:42:00,76.0,24.0,-100.00,SE,135,7.0,14.0,14,0.00,,,-99.99,,2013-05-02 22:42:00,
2013-05-02 18:52:00,76.0,23.0,-100.00,ESE,120,7.0,15.0,13,0.00,,,-99.99,,2013-05-02 22:52:00,
2013-05-02 19:02:00,76.0,24.0,-100.00,SE,140,7.0,13.0,14,0.00,,,-99.99,,2013-05-02 23:02:00,
2013-05-02 19:11:00,76.0,25.0,-100.00,SE,135,6.0,12.0,14,0.00,,,-99.99,,2013-05-02 23:11:00,
2013-05-02 19:22:00,75.0,25.0,-100.00,SSE,150,5.0,9.0,15,0.00,,,-99.99,,2013-05-02 23:22:00,
2013-05-02 19:32:00,75.0,24.0,-100.00,SE,130,8.0,12.0,14,0.00,,,-99.99,,2013-05-02 23:32:00,
2013-05-02 19:42:00,75.0,24.0,-100.00,East,95,2.0,9.0,15,0.00,,,-99.99,,2013-05-02 23:42:00,
2013-05-02 19:51:00,75.0,24.0,-100.00,East,90,4.0,9.0,14,0.00,,,-99.99,,2013-05-02 23:51:00,
2013-05-02 20:01:00,75.0,24.0,-100.00,East,95,4.0,11.0,14,0.00,,,-99.99,,2013-05-03 00:01:00,
2013-05-02 20:11:00,74.0,24.0,-100.00,East,80,2.0,8.0,15,0.00,,,-99.99,,2013-05-03 00:11:00,
2013-05-02 20:21:00,74.0,24.0,-100.00,ESE,115,1.0,6.0,15,0.00,,,-99.99,,2013-05-03 00:21:00,
2013-05-02 20:32:00,73.0,24.0,-100.00,East,100,1.0,6.0,15,0.00,,,-99.99,,2013-05-03 00:32:00,
2013-05-02 20:42:00,73.0,24.0,-100.00,ESE,110,2.0,4.0,15,0.00,,,-99.99,,2013-05-03 00:42:00,
2013-05-02 20:52:00,72.0,26.0,-100.00,ENE,75,2.0,4.0,17,0.00,,,-99.99,,2013-05-03 00:52:00,
2013-05-02 21:01:00,72.0,26.0,-100.00,ENE,65,1.0,4.0,17,0.00,,,-99.99,,2013-05-03 01:01:00,
2013-05-02 21:11:00,71.0,26.0,-100.00,East,80,2.0,6.0,18,0.00,,,-99.99,,2013-05-03 01:11:00,
2013-05-02 21:21:00,71.0,25.0,-100.00,ESE,110,2.0,6.0,18,0.00,,,-99.99,,2013-05-03 01:21:00,
2013-05-02 21:32:00,70.0,26.0,-100.00,East,85,1.0,6.0,18,0.00,,,-99.99,,2013-05-03 01:32:00,
2013-05-02 21:42:00,69.0,28.0,-100.00,ENE,70,3.0,6.0,21,0.00,,,-99.99,,2013-05-03 01:42:00,
2013-05-02 21:52:00,68.0,30.0,-100.00,ENE,75,2.0,5.0,23,0.00,,,-99.99,,2013-05-03 01:52:00,
2013-05-02 22:01:00,69.0,27.0,-100.00,East,100,2.0,6.0,20,0.00,,,-99.99,,2013-05-03 02:01:00,
2013-05-02 22:11:00,69.0,27.0,-100.00,ESE,110,3.0,7.0,20,0.00,,,-99.99,,2013-05-03 02:11:00,
2013-05-02 22:22:00,69.0,27.0,-100.00,SE,125,2.0,6.0,20,0.00,,,-99.99,,2013-05-03 02:22:00,
2013-05-02 22:32:00,68.0,27.0,-100.00,ESE,110,2.0,6.0,21,0.00,,,-99.99,,2013-05-03 02:32:00,
2013-05-02 22:42:00,68.0,27.0,-100.00,East,85,2.0,5.0,21,0.00,,,-99.99,,2013-05-03 02:42:00,
2013-05-02 22:52:00,68.0,26.0,-100.00,East,100,3.0,9.0,20,0.00,,,-99.99,,2013-05-03 02:52:00,
2013-05-02 23:01:00,67.0,26.0,-100.00,SE,130,4.0,10.0,21,0.00,,,-99.99,,2013-05-03 03:01:00,
2013-05-02 23:11:00,67.0,26.0,-100.00,ESE,110,3.0,6.0,21,0.00,,,-99.99,,2013-05-03 03:11:00,
2013-05-02 23:21:00,67.0,26.0,-100.00,SE,125,4.0,9.0,21,0.00,,,-99.99,,2013-05-03 03:21:00,
2013-05-02 23:33:00,66.0,26.0,-100.00,East,85,5.0,9.0,22,0.00,,,-99.99,,2013-05-03 03:33:00,
2013-05-02 23:42:00,66.0,26.0,-100.00,ESE,120,3.0,9.0,22,0.00,,,-99.99,,2013-05-03 03:42:00,
2013-05-02 23:52:00,65.0,26.0,-100.00,East,90,2.0,7.0,22,0.00,,,-99.99,,2013-05-03 03:52:00,